AJISAI (EGS)            
1 16908U 86061A   21015.84515713 -.00000106  00000-0 -60461-4 0  9998
2 16908  50.0099 110.6124 0011453 184.1345 291.9048 12.44493148234185
COSMOS 1812             
1 17295U 87003A   21015.74772175  .00000256  00000-0  11761-4 0  9994
2 17295  82.5154 296.3024 0001755 290.2921  69.8123 15.15800665856869
SL-14 R/B               
1 17567U 87024B   21016.19013454  .00000080  00000-0  67486-5 0  9998
2 17567  82.5277  53.7485 0018883 352.3194   7.7729 14.83788074830560
COSMOS 1833             
1 17589U 87027A   21016.18382397 -.00000231  00000-0 -98268-4 0  9990
2 17589  70.9207 313.9998 0015987 156.6352 203.5499 14.12905412745194
SL-16 R/B               
1 17590U 87027B   21016.13380490 -.00000243  00000-0 -97542-4 0  9996
2 17590  71.0028 273.5139 0002900 122.0323 238.1082 14.16793356749511
SL-14 R/B               
1 17912U 87038B   21015.92687050  .00000085  00000-0  74672-5 0  9996
2 17912  82.5017 262.2968 0018884 238.4976 121.4394 14.83063474800617
COSMOS 1844             
1 17973U 87041A   21015.78494836  .00000127  00000-0  91749-4 0  9999
2 17973  70.9002  35.5222 0032753 318.9739  40.8919 14.14119239737931
SL-14 R/B               
1 18153U 87055B   21015.88748973  .00000084  00000-0  73036-5 0  9992
2 18153  82.5020 315.6971 0023132  91.9115 268.4750 14.83311434791276
COSMOS 1867             
1 18187U 87060A   21015.96524715 -.00000089  00000-0  41228-5 0  9994
2 18187  65.0098 165.9714 0016923 282.4452  77.4739 14.31118666751283
COSMOS 1892             
1 18421U 87088A   21015.83064524  .00000322  00000-0  14413-4 0  9992
2 18421  82.4991  63.3275 0016156  52.8832 307.3875 15.17422989816752
SL-14 R/B               
1 18749U 88001B   21015.64608978  .00000062  00000-0  46231-5 0  9992
2 18749  82.5151 158.7923 0017767 322.7124  47.4825 14.83242351763321
COSMOS 1933             
1 18958U 88020A   21015.66081985  .00000399  00000-0  26853-4 0  9990
2 18958  82.5299 280.6542 0012278 142.6207 217.5876 15.03837268766971
SL-3 R/B                
1 19046U 88032B   21015.87006006  .00000371  00000-0  31666-4 0  9994
2 19046  97.3901  33.3879 0036652 201.8838 158.0824 15.02823386768867
SL-16 R/B               
1 19120U 88039B   21015.90340742  .00000014  00000-0  29574-4 0  9995
2 19120  71.0154  79.6092 0022870 335.7369  24.2677 14.19218464691791
COSMOS 1953             
1 19210U 88050A   21015.79242243  .00001029  00000-0  68229-4 0  9999
2 19210  82.5157 203.6909 0014223 110.1704 250.1054 15.06140584753622
SL-8 R/B                
1 19257U 88053B   21015.83229639 -.00000005  00000-0  70673-5 0  9993
2 19257  74.0501 330.4696 0021796 257.5555 122.7408 14.37499014706529
COSMOS 1975             
1 19573U 88093A   21015.65611643  .00000628  00000-0  42087-4 0  9995
2 19573  82.5202 158.6249 0014679 153.6294 206.5683 15.05039943735428
SL-14 R/B               
1 19574U 88093B   21015.73393795  .00000064  00000-0  48295-5 0  9992
2 19574  82.5322   1.5385 0022970 119.9681  52.6533 14.83353285722330
SL-16 R/B               
1 19650U 88102B   21015.79647149  .00000024  00000-0  36390-4 0  9997
2 19650  71.0005 143.3958 0014927 342.0965  17.9630 14.15800861660935
INTERCOSMOS 24          
1 20261U 89080A   21015.92161764  .00000092  00000-0  26004-4 0  9998
2 20261  82.6026 242.7746 1202447 317.5984  33.7993 12.56165574430672
SL-14 R/B               
1 20262U 89080C   21015.70572401  .00000062  00000-0  10643-4 0  9998
2 20262  82.5947 297.9570 1237625 153.1409 213.9660 12.48953925425485
DELTA 2 R/B(1)          
1 20303U 89085B   21015.72104846  .00002600  00000-0  82337-4 0  9994
2 20303  35.6414 116.1751 0093248 265.0719  93.9358 15.28428382701087
DELTA 1 R/B             
1 20323U 89089B   21015.79483519  .00000050  00000-0  22377-4 0  9999
2 20323  97.1152 134.0249 0070213 283.2360  76.1011 14.48379212623601
ARIANE 40 R/B           
1 20443U 90005H   21016.13799827  .00000008  00000-0  17096-4 0  9998
2 20443  98.5501  83.3163 0011384  72.2152 288.0277 14.38112683622947
DELTA 2 R/B(1)          
1 20453U 90008B   21015.84081190  .00001530  00000-0  85700-4 0  9994
2 20453  35.6267  83.5330 0279339 278.4416  78.4731 14.86152276642804
COSMOS 2058             
1 20465U 90010A   21016.19058762  .00000186  00000-0  13395-4 0  9995
2 20465  82.4883  68.6325 0014934 198.4101 161.6584 14.98122853681286
SL-14 R/B               
1 20466U 90010B   21015.83995871  .00000071  00000-0  61137-5 0  9998
2 20466  82.5017 228.0037 0020594   4.0940 356.0438 14.81407447650170
SL-14 R/B               
1 20511U 90018B   21015.54494091  .00000064  00000-0  52954-5 0  9992
2 20511  82.5231 175.6166 0018428 138.7960 286.9654 14.80062924644483
HST                     
1 20580U 90037B   21015.67925567  .00000496  00000-0  19084-4 0  9995
2 20580  28.4712 355.8616 0002574 211.9126 311.1585 15.09535467487991
SL-16 R/B               
1 20625U 90046B   21016.12879518  .00000278  00000-0  16926-3 0  9999
2 20625  70.9991 281.7983 0016404 277.2779  82.6478 14.14660774582949
COSMOS 2084             
1 20663U 90055A   21015.89591159 -.00000042  00000-0  14144-4 0  9997
2 20663  62.7935 178.8345 0046694 339.6735  20.2498 14.92176986655051
SL-6 R/B(2)             
1 20666U 90055D   21015.91296467 -.00000041  00000-0  14496-4 0  9996
2 20666  62.7860  94.6827 0077114  16.7061 343.6545 14.92421574657005
SL-8 R/B                
1 20775U 90078B   21015.81205393  .00001317  00000-0  63764-4 0  9997
2 20775  82.9254  51.4155 0568825 256.4085  97.3166 14.35183096536194
SL-8 R/B                
1 21088U 91006B   21015.59965714  .00000013  00000-0 -19537-5 0  9995
2 21088  82.9435 127.5093 0021415 256.0430 114.4857 13.77146575505413
OKEAN-3                 
1 21397U 91039A   21015.37235324  .00000208  00000-0  17471-4 0  9996
2 21397  82.5230 335.2413 0017779 175.3478 184.7911 14.93024758583887
COSMOS 2151             
1 21422U 91042A   21016.16807249  .00000204  00000-0  17472-4 0  9995
2 21422  82.5000  80.4283 0012838 238.8307 121.1655 14.92203119603682
SL-14 R/B               
1 21423U 91042B   21016.18969352  .00000061  00000-0  50911-5 0  9999
2 21423  82.4939 178.0770 0016149 283.4967  76.4446 14.79812690596164
ERS-1                   
1 21574U 91050A   21015.60482291  .00000020  00000-0  21505-4 0  9994
2 21574  98.6276 335.3380 0033401  18.0491 342.1873 14.37777400545606
ARIANE 40 R/B           
1 21610U 91050F   21015.46858052  .00000019  00000-0  19559-4 0  9995
2 21610  98.4427  88.3369 0002961   4.1188   6.7435 14.40930647548238
INTERCOSMOS 25          
1 21819U 91086A   21015.94020976 -.00000863  00000-0 -18010-3 0  9993
2 21819  82.5835 359.0313 1516484 179.1472 181.2796 12.05167166269880
SL-8 R/B                
1 21876U 92008B   21015.82073340 -.00000017  00000-0 -33522-4 0  9998
2 21876  82.9254 224.5664 0034497 342.9504  28.6156 13.75668908451077
SL-8 R/B                
1 21938U 92020B   21015.52797687  .00000043  00000-0  29055-4 0  9998
2 21938  82.9309 109.1326 0030237 140.1877 230.6902 13.75293208442823
COSMOS 2219             
1 22219U 92076A   21015.63906935 -.00000033  00000-0  72281-5 0  9992
2 22219  71.0624 344.4544 0018653 198.6740 161.3700 14.13660086452806
SL-16 R/B               
1 22220U 92076B   21015.70307329  .00000085  00000-0  66850-4 0  9994
2 22220  70.9991 184.7826 0010602  76.6434 294.4799 14.16466864455734
COSMOS 2221             
1 22236U 92080A   21015.92769287  .00000176  00000-0  16429-4 0  9993
2 22236  82.5077 262.8698 0016227 341.6170  18.4459 14.88000202500873
SL-16 R/B               
1 22285U 92093B   21016.14869471  .00000105  00000-0  78772-4 0  9993
2 22285  71.0230 346.2981 0006576 283.8455  76.1936 14.15055407447702
COSMOS 2228             
1 22286U 92094A   21015.84877504  .00000179  00000-0  16527-4 0  9998
2 22286  82.5188 219.4385 0022561  95.3031 265.0761 14.88219193496038
SL-16 R/B               
1 22566U 93016B   21016.18734779  .00000264  00000-0  16122-3 0  9993
2 22566  71.0056 199.1997 0012144 296.1976  63.7897 14.14968932436436
COSMOS 2242             
1 22626U 93024A   21015.91455625  .00000192  00000-0  18075-4 0  9999
2 22626  82.5209 247.5875 0020376  95.0095 265.3449 14.88071189500454
SL-16 R/B               
1 22803U 93059B   21015.70043190 -.00000228  00000-0 -89501-4 0  9995
2 22803  70.9909  11.9715 0017980 200.6404 159.3995 14.16831212413363
